Wind_Speed
20 21 22 22 22 22 22 22 23 22 22 22 22 21 20 20 20 20 20 20 19 19 19 19 19 20 20 21 21 21 22 21 22 23 23 23 24 24 24 24 24 25 25
20 21 22 22 22 22 22 22 23 22 22 21 21 21 20 20 19 19 18 18 18 19 19 19 19 19 20 20 21 21 21 22 23 23 23 24 24 24 25 26 26 26 26
22 22 22 22 22 22 22 22 21 21 21 20 20 19 19 18 18 18 17 17 18 18 17 18 19 19 19 20 21 22 22 22 23 24 25 24 24 25 26 27 27 26 26
22 22 22 23 23 22 22 22 20 19 19 19 19 17 17 17 17 17 16 16 17 17 17 18 19 20 20 20 21 22 23 23 24 25 26 26 26 26 26 27 27 27 26
21 21 21 21 21 22 22 20 19 17 18 18 19 18 18 17 16 16 16 16 17 17 18 18 19 20 21 22 22 23 22 23 23 24 25 26 27 26 26 26 26 27 27
21 20 19 19 20 22 21 20 18 17 17 18 18 18 18 17 16 17 16 16 17 18 18 19 19 20 21 21 21 22 22 23 23 23 25 26 26 26 27 27 26 27 28
19 19 18 18 18 18 18 16 16 17 18 18 18 18 18 17 17 17 15 16 17 17 18 18 19 20 20 20 21 21 22 23 24 24 24 25 25 26 26 27 27 28 28
17 17 16 16 17 17 16 16 16 16 17 18 17 18 18 18 18 17 15 16 16 16 17 18 19 20 20 21 21 21 21 22 23 23 24 24 25 25 26 26 27 27 27
17 16 16 16 17 17 17 16 16 16 17 17 17 17 17 17 17 16 15 16 16 16 17 17 18 19 20 21 21 21 21 21 22 22 22 23 23 24 24 25 25 25 26
17 17 17 17 17 17 16 16 16 16 16 16 17 17 16 16 16 15 15 15 16 16 16 17 18 19 19 20 20 20 20 20 21 21 21 22 22 23 23 24 24 25 25
17 18 18 19 18 18 17 17 17 17 17 17 17 17 16 16 16 16 15 15 16 17 17 18 18 18 18 18 19 19 19 19 20 21 21 21 22 21 22 23 23 24 24
18 18 18 18 18 18 18 18 18 17 17 17 17 16 16 16 16 16 15 16 17 17 17 17 16 16 17 18 18 18 18 18 18 19 20 20 21 21 21 21 22 22 22
18 18 18 18 18 18 18 18 18 17 17 17 16 16 16 16 16 16 16 17 17 17 16 15 15 16 17 17 17 17 17 17 18 18 19 20 20 20 20 20 20 20 20
18 18 17 17 17 17 16 17 17 18 17 16 15 15 16 17 16 16 16 16 16 15 14 14 15 16 17 17 16 15 15 16 16 17 18 19 19 19 18 19 18 18 19
18 17 16 16 16 16 15 16 17 17 16 15 15 15 16 16 15 15 15 15 15 14 14 14 15 16 16 16 14 13 14 15 16 17 17 18 17 17 18 17 17 17 19
17 16 16 16 16 16 16 16 16 16 15 15 15 15 15 15 15 14 14 14 14 13 13 14 15 15 15 15 14 14 15 16 16 16 17 17 17 18 18 18 18 19 19
18 17 17 16 16 16 16 16 16 16 16 15 15 15 15 15 14 14 14 14 13 13 13 13 14 15 15 15 15 15 15 16 17 18 19 19 19 20 21 20 20 20 19
18 18 17 16 16 16 16 16 16 16 16 16 16 15 15 14 14 14 14 13 13 13 13 14 14 15 15 15 16 16 16 17 18 19 20 21 21 22 22 21 22 21 21
18 18 17 16 17 16 16 17 17 16 16 17 16 15 14 14 13 13 13 13 13 13 13 14 15 15 16 16 16 16 16 17 19 20 21 22 23 23 23 23 23 22 22
18 18 18 18 17 17 17 18 17 17 17 16 15 15 15 14 13 13 13 13 13 13 14 15 15 16 16 16 17 17 18 18 20 21 22 23 24 24 25 24 24 23 23
20 20 19 19 18 18 18 18 17 16 16 16 16 15 15 14 14 13 13 13 13 14 14 15 16 16 16 17 17 18 19 20 21 22 23 24 25 25 25 25 24 23 23
20 20 20 20 20 19 19 18 17 17 17 16 16 15 14 14 13 13 13 14 13 14 15 16 17 17 17 17 18 19 20 21 22 23 24 24 25 25 26 25 25 24 24
21 21 21 21 20 20 19 18 17 17 17 16 15 14 13 13 13 12 13 13 13 14 15 16 17 17 17 18 19 20 21 22 23 24 25 25 26 26 26 27 26 25 25
23 22 22 22 21 20 19 18 18 17 17 16 15 14 14 14 13 13 13 13 14 14 15 16 17 17 18 19 20 21 22 23 23 24 25 26 26 26 26 26 26 25 25
23 22 22 22 21 19 19 18 17 17 17 16 15 15 14 14 14 14 14 14 14 14 15 16 17 17 18 20 21 22 22 22 23 24 25 25 26 27 27 26 26 26 25
23 22 22 21 20 19 18 17 17 17 16 15 15 15 15 15 15 14 14 14 15 15 16 16 17 18 19 20 21 22 22 22 23 24 25 26 26 27 27 26 26 26 26
Wind_Direction
300 299 301 302 301 301 303 304 304 304 305 305 302 302 301 295 291 287 284 282 283 283 282 281 281 280 279 279 278 278 276 276 276 276 276 275 273 271 271 271 272 271 269
302 302 302 301 301 302 303 305 303 303 306 307 305 302 300 297 292 291 289 286 283 282 281 282 283 282 279 279 280 281 277 277 277 277 278 277 275 275 273 273 274 271 269
302 304 304 304 302 301 303 305 304 305 309 312 309 304 300 298 295 295 290 286 284 284 284 284 285 284 281 281 283 283 283 280 278 277 277 278 275 274 274 274 275 274 273
304 305 307 306 304 302 303 305 306 311 313 316 313 309 305 304 301 297 293 290 289 287 286 287 286 285 284 284 286 286 285 284 283 281 280 280 278 275 273 274 275 274 274
309 309 308 307 308 307 305 308 311 317 319 318 314 313 311 309 306 302 297 296 293 290 290 289 288 286 285 286 287 286 286 286 285 284 284 282 282 279 277 277 275 273 272
310 312 311 309 310 312 309 308 310 317 317 315 314 312 312 310 309 307 300 296 295 293 291 291 291 290 288 287 286 287 287 287 287 288 288 286 285 281 279 278 276 274 271
312 312 312 312 315 316 313 312 314 315 315 315 315 313 313 312 310 309 306 303 303 300 296 295 295 294 293 289 288 288 289 289 289 290 291 290 287 283 280 279 276 273 272
315 316 317 320 320 321 317 314 315 316 316 316 316 315 314 311 311 310 308 308 308 305 300 298 299 297 295 294 292 290 292 292 292 292 292 291 289 286 284 282 278 275 272
315 315 318 321 320 321 320 318 317 318 319 320 320 319 319 316 314 311 310 309 307 307 305 302 303 303 300 298 297 294 292 293 293 294 295 293 291 289 287 284 281 277 273
314 314 315 319 321 322 325 323 322 321 321 323 323 322 322 322 321 317 314 313 312 312 310 307 307 307 305 302 301 300 298 296 295 295 295 295 294 293 290 287 283 279 278
313 314 315 318 318 319 322 322 321 319 319 321 322 321 323 323 321 319 319 319 318 315 314 313 312 311 309 306 304 302 300 298 297 297 297 298 297 296 293 290 285 281 279
314 313 315 317 316 316 318 319 321 321 321 323 323 323 323 323 322 321 322 323 323 321 319 317 316 315 314 312 310 307 305 304 303 303 304 303 302 300 298 294 289 285 281
315 315 315 315 315 315 315 317 319 323 323 321 321 324 326 325 325 323 323 322 323 325 326 324 322 321 319 317 316 311 308 307 307 308 310 310 308 306 304 303 297 290 286
315 314 312 311 312 313 314 316 319 324 325 322 321 322 325 326 326 325 324 323 325 328 330 327 326 326 325 323 322 320 318 315 313 312 313 316 315 313 311 312 307 297 293
316 313 312 314 315 314 316 318 319 323 326 325 323 323 325 327 327 327 326 326 327 328 328 328 329 330 329 330 329 327 326 325 322 320 320 319 318 317 317 315 310 304 299
317 318 317 317 319 317 318 320 320 322 323 324 323 325 328 327 326 327 326 325 326 327 329 330 331 332 333 333 331 328 326 325 325 326 326 325 322 321 321 319 314 307 304
316 317 318 317 316 318 320 322 323 323 323 324 324 326 327 326 325 325 325 324 327 329 329 329 332 334 333 331 330 330 330 330 330 330 329 328 327 324 322 321 318 313 307
313 315 318 318 317 319 319 321 321 321 321 321 321 322 323 323 322 322 323 326 326 326 328 330 331 334 334 332 329 328 329 330 331 331 331 328 327 324 323 321 319 317 312
312 313 314 315 318 320 320 319 317 317 317 318 319 319 320 321 320 320 321 323 325 324 325 326 329 332 335 334 333 330 330 332 332 331 330 329 327 326 324 322 320 318 315
309 310 311 311 313 314 315 316 314 314 313 313 314 316 317 318 318 318 321 322 324 326 327 327 328 330 332 332 332 331 331 331 330 329 329 330 330 329 327 325 322 319 317
304 306 306 308 309 310 310 312 312 311 310 310 312 314 313 315 316 315 319 320 322 324 326 328 328 329 329 331 331 331 330 330 330 330 330 331 331 331 330 329 326 323 321
302 303 304 306 307 308 308 309 310 311 311 310 310 310 310 311 314 314 315 318 319 321 325 327 328 329 330 331 332 331 331 331 331 331 331 332 331 329 329 329 327 324 323
301 301 303 305 305 306 306 306 307 308 310 310 309 308 308 310 312 314 316 317 317 320 323 326 329 330 330 331 332 331 331 330 331 331 332 331 330 329 329 329 328 326 324
297 298 299 302 303 303 302 302 303 304 307 307 305 303 304 307 309 310 314 318 320 322 324 326 329 331 330 330 331 330 330 331 332 331 331 331 331 331 331 331 330 329 327
297 297 296 298 298 299 300 298 298 299 302 301 300 300 300 303 303 304 308 312 317 319 322 324 326 329 330 331 332 332 332 333 334 333 333 334 333 333 334 334 333 331 329
297 297 295 295 295 296 295 294 295 296 297 296 296 299 299 301 302 302 304 309 313 316 320 323 325 327 328 331 333 334 333 333 333 333 334 335 335 334 334 333 332 331 329
Height
5826 5823 5821 5819 5816 5814 5811 5808 5806 5803 5800 5797 5795 5792 5790 5788 5786 5784 5783 5783 5782 5781 5781 5781 5780 5779 5778 5778 5777 5777 5776 5776 5776 5776 5776 5776 5776 5775 5775 5775 5774 5774 5774
5822 5819 5816 5813 5811 5808 5806 5804 5801 5798 5795 5792 5789 5787 5784 5782 5781 5780 5778 5777 5777 5776 5776 5775 5775 5774 5773 5773 5772 5771 5771 5771 5770 5770 5770 5770 5770 5768 5768 5767 5767 5766 5766
5818 5815 5811 5809 5806 5804 5801 5799 5796 5793 5791 5787 5784 5781 5779 5777 5776 5775 5774 5773 5772 5772 5771 5770 5770 5769 5768 5768 5767 5766 5765 5764 5764 5764 5764 5763 5763 5762 5761 5760 5759 5758 5758
5814 5811 5808 5805 5802 5800 5797 5795 5792 5789 5786 5783 5780 5777 5776 5774 5773 5771 5771 5769 5768 5767 5766 5765 5765 5764 5763 5762 5761 5760 5759 5758 5757 5757 5756 5755 5754 5754 5754 5753 5751 5750 5750
5810 5807 5804 5801 5799 5796 5793 5791 5788 5785 5783 5780 5778 5775 5773 5771 5769 5768 5767 5765 5764 5763 5761 5760 5759 5758 5757 5756 5755 5754 5753 5752 5751 5750 5749 5748 5747 5746 5745 5745 5744 5743 5743
5806 5803 5800 5798 5795 5792 5789 5787 5785 5782 5780 5778 5775 5772 5770 5768 5766 5765 5763 5762 5760 5758 5756 5755 5754 5752 5751 5750 5749 5747 5746 5745 5744 5743 5741 5740 5739 5738 5737 5736 5736 5735 5734
5803 5800 5797 5795 5792 5789 5786 5784 5782 5779 5777 5774 5772 5769 5767 5765 5763 5761 5759 5757 5756 5754 5752 5750 5749 5747 5745 5744 5742 5741 5740 5739 5737 5735 5734 5732 5731 5730 5728 5728 5727 5726 5726
5800 5797 5794 5792 5789 5786 5783 5781 5779 5776 5774 5771 5768 5766 5764 5762 5760 5757 5756 5753 5751 5750 5748 5746 5744 5742 5740 5738 5736 5735 5733 5732 5730 5728 5726 5725 5723 5721 5720 5719 5719 5718 5718
5797 5794 5791 5789 5786 5783 5780 5777 5775 5773 5771 5768 5765 5763 5760 5758 5756 5754 5752 5750 5748 5745 5743 5741 5739 5736 5734 5732 5730 5728 5727 5725 5724 5722 5720 5718 5716 5714 5713 5711 5710 5710 5709
5793 5791 5788 5785 5782 5780 5777 5774 5772 5770 5768 5765 5763 5760 5757 5755 5753 5751 5748 5746 5744 5741 5739 5736 5734 5731 5728 5726 5724 5722 5721 5719 5717 5715 5713 5711 5709 5707 5705 5704 5702 5701 5701
5789 5787 5784 5781 5778 5776 5773 5771 5768 5766 5764 5762 5760 5757 5754 5752 5750 5748 5745 5743 5740 5738 5735 5732 5729 5726 5724 5721 5719 5717 5715 5713 5711 5709 5708 5705 5703 5701 5699 5697 5695 5694 5692
5786 5783 5780 5777 5775 5772 5770 5767 5765 5763 5760 5758 5756 5754 5751 5749 5746 5744 5742 5739 5737 5734 5730 5728 5725 5723 5720 5717 5715 5712 5710 5708 5706 5705 5702 5700 5697 5695 5692 5690 5688 5687 5685
5782 5779 5776 5773 5771 5768 5766 5764 5762 5759 5757 5755 5753 5751 5748 5746 5744 5741 5739 5736 5733 5730 5727 5724 5722 5719 5717 5714 5711 5709 5706 5704 5702 5700 5698 5695 5692 5689 5687 5684 5682 5680 5679
5778 5775 5772 5770 5767 5765 5763 5761 5759 5756 5754 5751 5749 5748 5746 5744 5741 5738 5736 5733 5730 5727 5724 5722 5720 5717 5714 5711 5708 5705 5703 5701 5698 5695 5693 5690 5687 5684 5682 5679 5677 5675 5673
5775 5772 5769 5767 5764 5762 5760 5758 5755 5753 5751 5749 5747 5745 5743 5741 5738 5736 5733 5731 5728 5725 5723 5720 5717 5714 5711 5708 5705 5703 5700 5698 5695 5692 5689 5686 5683 5680 5677 5674 5672 5670 5668
5772 5769 5767 5765 5762 5760 5757 5755 5753 5751 5748 5746 5744 5742 5740 5738 5736 5734 5731 5729 5726 5724 5721 5718 5715 5712 5709 5706 5703 5700 5697 5695 5691 5688 5685 5682 5679 5676 5673 5670 5667 5665 5662
5770 5767 5764 5762 5760 5757 5755 5753 5751 5748 5746 5744 5742 5740 5738 5736 5734 5732 5729 5727 5724 5722 5719 5716 5713 5710 5707 5704 5701 5698 5695 5692 5689 5685 5682 5679 5676 5672 5669 5666 5663 5660 5657
5767 5765 5762 5760 5757 5755 5753 5751 5748 5746 5743 5741 5739 5737 5736 5734 5732 5730 5727 5725 5723 5720 5717 5715 5711 5708 5705 5702 5698 5695 5692 5689 5686 5683 5679 5676 5672 5668 5665 5661 5658 5655 5651
5764 5762 5759 5757 5755 5753 5750 5748 5746 5744 5741 5739 5737 5735 5734 5732 5730 5727 5725 5723 5721 5718 5715 5712 5709 5706 5703 5699 5696 5693 5690 5687 5683 5680 5676 5672 5668 5664 5660 5656 5652 5649 5645
5760 5758 5756 5754 5752 5750 5747 5745 5743 5741 5739 5737 5735 5733 5731 5729 5727 5725 5723 5720 5718 5716 5713 5710 5707 5704 5700 5697 5694 5691 5687 5684 5680 5677 5672 5668 5663 5659 5654 5650 5646 5643 5639
5756 5754 5752 5750 5749 5747 5744 5742 5740 5738 5736 5734 5732 5730 5728 5726 5724 5722 5720 5718 5716 5713 5710 5707 5704 5701 5698 5695 5691 5688 5684 5681 5677 5673 5669 5664 5659 5654 5649 5645 5641 5637 5633
5752 5750 5748 5747 5745 5743 5741 5738 5736 5734 5732 5730 5729 5727 5725 5723 5721 5719 5717 5715 5713 5710 5708 5705 5702 5698 5695 5692 5688 5685 5681 5677 5673 5669 5665 5660 5655 5650 5645 5640 5636 5631 5627
5747 5745 5744 5742 5740 5738 5736 5734 5733 5731 5729 5727 5725 5723 5721 5720 5718 5716 5714 5712 5710 5707 5705 5702 5699 5695 5692 5688 5685 5681 5677 5673 5669 5665 5660 5655 5650 5645 5640 5635 5630 5625 5621
5742 5740 5739 5737 5735 5733 5732 5730 5728 5726 5725 5723 5721 5720 5718 5717 5715 5713 5711 5709 5707 5704 5701 5698 5695 5692 5689 5685 5682 5678 5674 5670 5665 5661 5656 5650 5645 5640 5635 5630 5625 5620 5616
5736 5735 5733 5731 5730 5728 5727 5725 5724 5722 5721 5719 5717 5716 5714 5713 5711 5710 5708 5706 5703 5701 5698 5695 5692 5689 5686 5682 5678 5674 5670 5666 5661 5656 5651 5646 5641 5635 5630 5625 5620 5615 5610
5731 5729 5727 5726 5724 5723 5721 5720 5719 5717 5716 5715 5713 5712 5710 5709 5707 5706 5704 5702 5700 5697 5695 5692 5689 5686 5682 5679 5675 5671 5667 5662 5658 5653 5648 5642 5637 5632 5626 5621 5616 5611 5606